TimeCDT,TemperatureF,Dew PointF,Humidity,Sea Level PressureIn,VisibilityMPH,Wind Direction,Wind SpeedMPH,Gust SpeedMPH,PrecipitationIn,Events,Conditions,WindDirDegrees,DateUTC
4:45 AM,59.0,53.6,82,29.95,10.0,North,9.2,-,N/A,,Mostly Cloudy,350,2013-06-18 09:45:00
5:45 AM,59.0,55.4,88,29.97,4.0,NNW,9.2,-,N/A,,Overcast,340,2013-06-18 10:45:00
6:15 AM,57.2,55.4,94,29.99,1.0,North,10.4,-,N/A,,Overcast,360,2013-06-18 11:15:00
6:45 AM,57.2,55.4,94,29.99,1.0,North,11.5,-,N/A,,Overcast,360,2013-06-18 11:45:00
7:45 AM,59.0,57.2,94,30.03,0.8,NNW,11.5,23.0,N/A,,Overcast,340,2013-06-18 12:45:00
8:45 AM,59.0,57.2,94,30.02,1.5,North,11.5,20.7,N/A,,Overcast,360,2013-06-18 13:45:00
9:45 AM,60.8,57.2,88,30.02,1.5,North,11.5,23.0,N/A,,Overcast,360,2013-06-18 14:45:00
10:45 AM,60.8,57.2,88,30.02,1.5,North,10.4,23.0,N/A,,Overcast,360,2013-06-18 15:45:00
11:45 AM,62.6,57.2,82,30.03,2.0,North,10.4,23.0,N/A,,Overcast,360,2013-06-18 16:45:00
12:45 PM,62.6,55.4,77,30.05,7.0,North,10.4,24.2,N/A,,Overcast,360,2013-06-18 17:45:00
1:14 PM,62.6,55.4,77,30.05,10.0,North,13.8,24.2,N/A,,Overcast,350,2013-06-18 18:14:00
1:45 PM,64.4,55.4,73,30.05,10.0,North,13.8,24.2,N/A,,Mostly Cloudy,360,2013-06-18 18:45:00
2:45 PM,64.4,53.6,68,30.04,10.0,North,11.5,25.3,N/A,,Mostly Cloudy,360,2013-06-18 19:45:00
3:45 PM,64.4,53.6,68,30.04,15.0,NNW,12.7,25.3,N/A,,Mostly Cloudy,340,2013-06-18 20:45:00
4:45 PM,64.4,53.6,68,30.04,20.0,North,15.0,26.5,N/A,,Partly Cloudy,360,2013-06-18 21:45:00
5:45 PM,62.6,51.8,68,30.04,20.0,North,15.0,26.5,N/A,,Partly Cloudy,360,2013-06-18 22:45:00
6:45 PM,62.6,50.0,63,30.05,20.0,North,16.1,-,N/A,,Partly Cloudy,10,2013-06-18 23:45:00
7:45 PM,60.8,50.0,68,30.05,10.0,North,13.8,-,N/A,,Clear,360,2013-06-19 00:45:00
8:45 PM,59.0,51.8,77,30.05,20.0,North,11.5,-,N/A,,Partly Cloudy,10,2013-06-19 01:45:00
9:45 PM,59.0,51.8,77,30.07,20.0,North,6.9,-,N/A,,Clear,360,2013-06-19 02:45:00